Starlink 30604

operational
NORAD ID: 58075 Int'l Des: 2023-160 Owner: SPXS Country: US Constellation: starlink
LEOCIRCULAR

Über Starlink 30604

Beschreibung wird geladen...

Live-Position

3D-Globus wird geladen...

Nächste Überflüge

Höhenverlauf

Altitude vs Time

uPlot chart will show altitude changes over time

Zweizeiliger Elementsatz

1 58075U 23160A 25259.84528942 -.00000171 00000-0 24375-5 0 9998
2 58075 43.0030 305.1880 0001271 269.7328 90.3369 15.02531551106768
Epoch: 16. Sept. 2025 • Age: 37 hours

Aktueller Status

Höhe 562.7 km
Geschwindigkeit 7.59 km/s
Subsatellitenpunkt 41.32°N, 92.16°W
Startdatum 18. Okt. 2023
Alter 1.9 years
Typ internet

Technische Details

Klassifizierung Payload
Masse 730.00 kg
Trockenmasse 700.00 kg
Gesamtmasse 730.00 kg
Länge 0.30 m
Durchmesser 4.10 m
Spannweite 29.00 m
Form Box + pan
Hersteller SPXS
Bus-Typ Starlink V2M
Phasenstatus In Orbit
Besitzer/Staat SPXS/US

Große Konstellationen

Loading constellations...